This is the latest recevied weather packets stored in our database for station/object K5DLF-13. If no packets are shown the sender has not sent any weather packets the latest 10 day(s).
| Time | Temp. | Humidity | Pressure | Rain* | Wind** | Luminosity | Snow |
|---|---|---|---|---|---|---|---|
| 1777400672 | 30° C | 76% | 1011.9 hPa | 0 mm | - | 905 W/m² | - |
| 1777400372 | 30.56° C | 75% | 1011.9 hPa | 0 mm | - | 905 W/m² | - |
| 1777400072 | 30.56° C | 74% | 1011.7 hPa | 0 mm | - | 954 W/m² | - |
| 1777399772 | 30.56° C | 75% | 1011.7 hPa | 0 mm | - | 911 W/m² | - |
| 1777399472 | 30.56° C | 75% | 1011.8 hPa | 0 mm | - | 872 W/m² | - |
| 1777399172 | 30.56° C | 75% | 1011.8 hPa | 0 mm | - | 809 W/m² | - |
| 1777398872 | 30.56° C | 74% | 1011.7 hPa | 0 mm | - | 868 W/m² | - |
| 1777398572 | 30.56° C | 74% | 1011.9 hPa | 0 mm | - | 919 W/m² | - |
| 1777398272 | 30.56° C | 74% | 1011.9 hPa | 0 mm | - | 817 W/m² | - |
| 1777397972 | 30.56° C | 73% | 1011.9 hPa | 0 mm | - | 863 W/m² | - |
| 1777397672 | 30.56° C | 75% | 1012 hPa | 0 mm | - | 868 W/m² | - |
| 1777397372 | 30.56° C | 76% | 1012 hPa | 0 mm | - | 812 W/m² | - |
| 1777397072 | 30.56° C | 76% | 1012 hPa | 0 mm | - | 865 W/m² | - |
| 1777396772 | 30° C | 74% | 1012 hPa | 0 mm | - | 837 W/m² | - |
| 1777396472 | 30° C | 75% | 1011.9 hPa | 0 mm | - | 798 W/m² | - |
| 1777396172 | 30° C | 75% | 1012 hPa | 0 mm | - | 754 W/m² | - |
| 1777395872 | 30° C | 77% | 1011.9 hPa | 0 mm | - | 823 W/m² | - |
| 1777395572 | 30° C | 76% | 1012 hPa | 0 mm | - | 840 W/m² | - |
| 1777395272 | 30° C | 77% | 1012 hPa | 0 mm | - | 817 W/m² | - |
| 1777394972 | 30° C | 78% | 1012.1 hPa | 0 mm | - | 800 W/m² | - |
| 1777394672 | 30° C | 78% | 1012.1 hPa | 0 mm | - | 745 W/m² | - |
| 1777394372 | 29.44° C | 78% | 1012 hPa | 0 mm | - | 788 W/m² | - |
| 1777394072 | 29.44° C | 77% | 1011.9 hPa | 0 mm | - | 803 W/m² | - |
| 1777393772 | 29.44° C | 78% | 1012 hPa | 0 mm | - | 763 W/m² | - |
| 1777393472 | 29.44° C | 77% | 1011.8 hPa | 0 mm | - | 737 W/m² | - |
* Rain latest hour (hover to see other rain measurements)
** Current wind speed in m/s (hover to see current wind gust speed)